Flag for Norway Weather past 2 weeks in Lillesand, Norway

Now
78 °F

Warm.


Feels Like: 79 °F
Forecast: 64 / 72 °F
Wind: 3 mph from East

Location: Kristiansand / Kjevik

Current Time: Jul 26, 2014 at 9:20:12 PM

Latest Report: Jul 26, 2014 at 8:00 PM


Visibility: N/A

Pressure: 29.99 "Hg

Humidity: 49%

Dew point: 58 °F

Location of LillesandLocation

Historic Weather in Lillesand — Graph

°F

Lillesand temperature yesterday

Maximum temperature yesterday: 83 °F (at 1:00 PM)
Minimum temperature yesterday: 59 °F (at 5:00 AM)
Average temperature yesterday: 73 °F

Past Weeks' High & Low Weather Summary

 TemperatureHumidityPressure
High84 °F (Jul 23, 2:00 PM)96% (Jul 15, 12:00 AM)30.31 "Hg (Jul 15, 12:00 AM)
Low50 °F (Jul 19, 5:00 AM)32% (Jul 24, 3:00 PM)29.57 "Hg (Jul 14, 4:00 AM)
Average68 °F69%30.05 "Hg
* Reported Jul 11 8:00 PM — Jul 26 8:00 PM, Lillesand, Weather by CustomWeather, © 2014

Note: Actual official high and low records may vary slightly from our data, if they occured in-between our weather recording intervals... More about our weather records

Advertising

Lillesand weather history for previous 24 hours

 ConditionsComfort  
Time TempWeatherWind HumidityBarometerVisibility
8:00 PM
Jul 26
78 °FWarm.3 mph49%29.99 "HgN/A
7:00 PM80 °FWarm.3 mph45%30.00 "HgN/A
6:00 PM81 °FWarm.3 mph46%30.00 "HgN/A
5:00 PM82 °FWarm.3 mph47%30.01 "HgN/A
4:00 PM81 °FWarm.6 mph49%30.01 "HgN/A
3:00 PM80 °FWarm.7 mph54%30.03 "HgN/A
2:00 PM81 °FWarm.8 mph56%30.03 "HgN/A
1:00 PM83 °FWarm.6 mph50%30.04 "HgN/A
12:00 PM84 °FWarm.3 mph45%30.05 "HgN/A
11:00 AM82 °FWarm.5 mph48%30.07 "HgN/A
10:00 AM78 °FWarm.2 mph54%30.08 "HgN/A
9:00 AM74 °FMild.2 mph65%30.09 "HgN/A
8:00 AM69 °FMild.5 mph81%30.09 "HgN/A
7:00 AM64 °FMild.2 mph90%30.11 "HgN/A
6:00 AM64 °FMild.5 mph87%30.11 "HgN/A
5:00 AM64 °FMild.3 mph90%30.10 "HgN/A
4:00 AM65 °FMild.3 mph80%30.11 "HgN/A
3:00 AM65 °FMild.2 mph77%30.11 "HgN/A
2:00 AM64 °FMild.3 mph79%30.13 "HgN/A
1:00 AM64 °FMild.2 mph76%30.14 "HgN/A
12:00 AM64 °FMild.3 mph75%30.13 "HgN/A
11:00 PM
Jul 25
66 °FMild.3 mph74%30.12 "HgN/A
10:00 PM70 °FMild.2 mph61%30.12 "HgN/A
9:00 PM80 °FWarm.1 mph41%30.12 "HgN/A
Weather by CustomWeather, © 2014

See weather overviewHow to use our weather pages